CZ-2D R/B, 41858

Orbit data source: Space-Track

CZ-2D R/B, 41858 is space debris in SSO originally from a launch on Fri, 11 Nov 2016 UTC launched from the Jiuquan Satellite Launch Center, China (JSC). Debris objects in space refer to the collection of defunct objects orbiting the Earth. Examples of debris include non-operational satellites, rocket bodies, and fragments generated from explosions, collisions, or faulty payload assembly.

Loading next visibility...
Identifier
41858, 2016-068B
Orbit
SSO
Country
Flag of CNCN / PRC
Related business
Manufacturer
BWYIC
Mission
Spacecraft
Bus & Motor
CZ-2 STAGE 2, Unknown motor
Mass
4,006 kg wet, 4,006 kg dry
Launch date (UTC)
2016-11-11 (10 years ago)
Launch vehicle
Unknown
Launch site
Jiuquan Satellite Launch Center, China (JSC)
Object type
Payload
Rocket body
Debris
Shape & HBR
Cyl, 4.8 m
Radar Cross Section
27.824 m², Large (>1 m²)

Expand to show TLE details & history
Last TLE update: 20 hours ago

TLE from 20 hours ago
0 CZ-2D R/B
1 41858U 16068B   26257.05499000  .00000071  00000-0  38925-4 0  9995
2 41858  98.6343 262.4373 0031821 275.8428  83.9131 14.37180575515736
Epoch: 2026-09-14T01:19Z
TLE epoch observation values (Epoch: 2026-09-14T01:19:11.135Z)
Latitude
-0°
Longitude
-110.39989°
Altitude
768.429 km
Speed
7.471 km/s
True Right ascension
17h 29m 44s
True Declination
0° 00' 00"
Sunlit
Object was in daylight at epoch
Visualization orbit readout
Latitude
Unknown
Longitude
Unknown
Altitude
Unknown
Speed
Unknown
Apparent Right ascension
Unknown
Apparent Declination
Unknown
Sunlit
N/A
Visualization observer readout
Local Sidereal Time
13:38:08
Azimuth
Unknown
Elevation
Unknown
Doppler factor
Unknown
Orbital elements
Apogee altitude
787.691 km
Perigee altitude
742.231 km
Semi-major axis
7,143.098 km
Eccentricity
0.00318
Inclination
98.6343°
RAAN
262.4373°
Arg. of periapsis
275.8428°
True anomaly
84.27584°
Mean anomaly
83.9131°
Eccentric anomaly
84.09445°
Mean motion
3.59512 °/min
Orbital period
100.14 mins
BSTAR
0.000038925
Loading maneuver chart data...
Computing Atmospheric mass density...
Loading historical data...
Loading historical data...
Loading historical data...
Loading historical data...
Loading historical data...
Loading historical data...
Loading historical data...

Documentation

Showing up to 5 results
|